TITAN 3C TRANSTAGE DEB, 38702

Orbit data source: Space-Track

TITAN 3C TRANSTAGE DEB, 38702 is space debris in GEO originally from a launch on Thu, 26 Sep 1968 UTC launched from the Air Force Eastern Test Range (AFETR). Debris objects in space refer to the collection of defunct objects orbiting the Earth. Examples of debris include non-operational satellites, rocket bodies, and fragments generated from explosions, collisions, or faulty payload assembly.

Not visible in the next 10 days
Identifier
38702, 1968-081AC
Orbit
GEO
Country
Flag of USUS
Related business
Manufacturer
Unknown
Mission
Spacecraft
Bus & Motor
Unknown
Mass
Unknown
Launch date (UTC)
1968-09-26 (57 years ago)
Launch vehicle
Unknown
Launch site
Air Force Eastern Test Range (AFETR)
Object type
Payload
Rocket body
Debris
Shape & HBR
Unknown shape, 1.1 m
Radar Cross Section
Small (<0.1 m²)

Expand to show TLE details & history
Last TLE update: 2 days ago

TLE from 2 days ago
0 TITAN 3C TRANSTAGE DEB
1 38702U 68081AC  25305.53883157 -.00000156  00000-0  00000-0 0  9991
2 38702   0.7582  24.0493 0202306  58.9898 279.2913  1.02224596 67395
Epoch: 2025-11-01T12:55Z
TLE epoch observation values (Epoch: 2025-11-01T12:55:55.047Z)
Latitude
-0.29076°
Longitude
124.9549°
Altitude
35,125.408 km
Speed
3.104 km/s
True Right ascension
00h 00m 00s
True Declination
0° 17' 26"
Sunlit
Object was in daylight at epoch
Visualization orbit readout
Latitude
Unknown
Longitude
Unknown
Altitude
Unknown
Speed
Unknown
Apparent Right ascension
Unknown
Apparent Declination
Unknown
Sunlit
N/A
Visualization observer readout
Local Sidereal Time
15:18:06
Azimuth
Unknown
Elevation
Unknown
Doppler factor
Unknown
Orbital elements
Apogee altitude
36,091.11 km
Perigee altitude
34,406.827 km
Semi-major axis
41,627.106 km
Eccentricity
0.02023
Inclination
0.7582°
RAAN
24.0493°
Arg. of periapsis
58.9898°
True anomaly
276.9947°
Mean anomaly
279.2913°
Eccentric anomaly
278.14386°
Mean motion
0.25555 °/min
Orbital period
1,408.72 mins
BSTAR
0
Loading maneuver chart data...
Computing Atmospheric mass density...

Documentation

Showing up to 5 results
|